254P/McNaught (2010)

Japanese version
Home page
Updated on November 10, 2011

---------------------------------------------------------------------

* Profile

Designation 254P/2010 T1
Discovery Date October 4, 2010
Magnitude 18.8 mag
Discoverer R. H. McNaught (Siding Spring Survey)

* Pictures

* Orbital Elements

Epoch 2010 Oct. 11.0 TT = JDT 2455480.5
T 2010 Oct. 26.63628 TT                                 MPC
q   3.2151123            (2000.0)            P               Q
n   0.09721206     Peri.  220.77451     +0.90889143     +0.06803150
a   4.6844214      Node   130.08027     -0.06665440     +0.99761889
e   0.3136586      Incl.   32.52977     -0.41167166     -0.01132564
P  10.1
From 71 observations 1980 Oct. 5-2011 Oct. 23, mean residual 0".5.

* Magnitudes Graph

        m1 = 10.5 + 5 log d + 10.0 log r(t - 200)

---------------------------------------------------------------------

The orbital elements are published on M.P.E.C. 2011-V31.
The magnitudes graphs are made with Comet for Windows.

---------------------------------------------------------------------

Copyright(C) Seiichi Yoshida (comet@aerith.net). All rights reserved.